sat.trackr.live / text

‹ back to catalog

STARLINK-36792

NORAD 67804 · 2026-032H

PAYLOAD ACTIVE UNKNOWN

§ Identity

Operator
Country
US
Launch date
2026-02-15
Launch site
AFWTR
Launch vehicle
Mass (kg)
RCS (m²)

Purposes: comms

External: N2YO · Heavens-Above · Gunter

§ Orbital elements

Epoch: 2026-09-18T22:48:04.759776Z

Period
93.91 min
Inclination
97.2855°
Eccentricity
0.0001325
Mean motion
15.33450093 rev/d
Perigee alt
464.6 km
Apogee alt
466.4 km
Semi-major
6,843.7 km
B*
3.4354e-4
RAAN
88.3143°
Arg perigee
60.5251°
Mean anomaly
299.6124°
Rev number
3,457

§ Raw data

STARLINK-367921 67804U 26032H   26261.95005509  .00011034  00000+0  34354-3 0  99982 67804  97.2855  88.3143 0001325  60.5251 299.6124 15.33450093 34575

JSON: /api/v1/satellites/67804 · /tle

For live sub-satellite position, see the globe view (requires WebGL).

§ Visibility from observer

Set your observer location to see the next 7 days of passes ≥ 10°. The values pass through the URL so the page stays shareable.

No JS? Fill the form by hand. The geolocation button needs JavaScript.